Regional Weather Roundup
Issued by NWS

Home | Current Version | Previous Version | Text Only | Print | Product List | Glossary Off
Versions: 1 2 3 4 5 6 7 8 9 10 11 12 13 14 15 16 17 18 19 20 21 22 23 24 25 26 27 28 29 30 31 32 33 34 35 36 37 38 39 40 41 42 43 44 45 46 47 48 49 50

744
ASUS43 KBIS 270702
RWRND

NORTH DAKOTA REGIONAL WEATHER ROUNDUP
NATIONAL WEATHER SERVICE BISMARCK ND
100 AM CST MON FEB 27 2017

NOTE: "FAIR" INDICATES FEW OR NO CLOUDS BELOW 12,000 FEET WITH NO
SIGNIFICANT WEATHER AND/OR OBSTRUCTIONS TO VISIBILITY.


NDZ001>003-009>011-017-270800-
NORTHWEST NORTH DAKOTA

CITY           SKY/WX    TMP DP  RH WIND       PRES   REMARKS
WILLISTON      FAIR      11   6  81 NW7       29.81R WCI   0
MINOT          FAIR      14  10  84 SW9       29.80S WCI   2
$$

NDZ018>021-031>035-040>046-270800-
SOUTHWEST NORTH DAKOTA

CITY           SKY/WX    TMP DP  RH WIND       PRES   REMARKS
BISMARCK       FAIR      12   9  87 SE3       29.86R
DICKINSON      CLOUDY    14  11  87 S6        29.75F WCI   5
GARRISON         N/A      7   3  84 CALM      29.81R
HETTINGER ARPT CLOUDY    20  17  88 SE7       29.77F WCI  11
$$

NDZ004>008-012>016-024-026-027-054-270800-
NORTHEAST NORTH DAKOTA

CITY           SKY/WX    TMP DP  RH WIND       PRES   REMARKS
GRAND FORKS    CLEAR      6  -1  73 S7        29.90S WCI  -6
DEVILS LAKE    FAIR       7   4  87 S5        29.84F WCI  -2
$$

NDZ022-023-025-028>030-036>039-047>053-270800-
SOUTHEAST NORTH DAKOTA

CITY           SKY/WX    TMP DP  RH WIND       PRES   REMARKS
FARGO          CLOUDY    21  15  78 SE6       29.91S WCI  13
JAMESTOWN      CLOUDY    21  17  84 CALM      29.85S
$$





USA.gov is the U.S. government's official web portal to all federal, state and local government web resources and services.